JST714 YMML-YSSY

Flight info

Callsign JST714
Flight time 1h 3m
Altitude 35000
Route ML H129 DOSEL Y59 RIVET
Aircraft A321/M-SDE3FGHIRWY/LB1

Departure

Time 2026-04-22 03:24
Airport Melbourne Airport (YMML)

Arrival

Time 2026-04-22 04:27
Airport Sydney Kingsford Smith International Airport (YSSY)
Time Latitude Longitude Altitude Speed Heading
2026-04-22 03:12 -37.67123 144.84634 389 ft 0 kts 352°
2026-04-22 03:16 -37.67138 144.84637 388 ft 4 kts 352°
2026-04-22 03:16 -37.67164 144.84641 388 ft 4 kts 346°
2026-04-22 03:17 -37.67186 144.84655 388 ft 4 kts 302°
2026-04-22 03:17 -37.67192 144.84681 388 ft 1 kts 259°
2026-04-22 03:19 -37.67192 144.84680 388 ft 1 kts 259°
2026-04-22 03:19 -37.67196 144.84656 387 ft 5 kts 259°
2026-04-22 03:20 -37.67202 144.84608 386 ft 5 kts 260°
2026-04-22 03:20 -37.67210 144.84548 385 ft 8 kts 261°
2026-04-22 03:20 -37.67205 144.84465 384 ft 11 kts 279°
2026-04-22 03:20 -37.67205 144.84363 383 ft 13 kts 265°
2026-04-22 03:21 -37.67267 144.84286 381 ft 15 kts 192°
2026-04-22 03:21 -37.67381 144.84301 378 ft 18 kts 171°
2026-04-22 03:21 -37.67511 144.84325 375 ft 19 kts 172°
2026-04-22 03:21 -37.67655 144.84354 370 ft 22 kts 172°
2026-04-22 03:22 -37.67777 144.84367 371 ft 18 kts 190°
2026-04-22 03:22 -37.67856 144.84243 360 ft 19 kts 256°
2026-04-22 03:22 -37.67877 144.84083 357 ft 18 kts 262°
2026-04-22 03:22 -37.67879 144.83981 357 ft 8 kts 310°
2026-04-22 03:23 -37.67832 144.83960 361 ft 7 kts 347°
2026-04-22 03:23 -37.67706 144.83937 361 ft 44 kts 352°
2026-04-22 03:23 -37.67172 144.83838 381 ft 109 kts 352°
2026-04-22 03:23 -37.66250 144.83685 494 ft 149 kts 355°
2026-04-22 03:24 -37.65265 144.83496 1258 ft 144 kts 351°
2026-04-22 03:24 -37.64212 144.83251 1701 ft 162 kts 348°
2026-04-22 03:24 -37.63078 144.83025 2340 ft 171 kts 350°
2026-04-22 03:24 -37.61820 144.82785 2781 ft 194 kts 347°
2026-04-22 03:25 -37.60409 144.82514 3141 ft 218 kts 347°
2026-04-22 03:25 -37.58796 144.82539 3606 ft 249 kts 13°
2026-04-22 03:25 -37.57158 144.83440 4414 ft 263 kts 24°
2026-04-22 03:25 -37.55499 144.84472 5418 ft 268 kts 26°
2026-04-22 03:26 -37.53814 144.85509 6441 ft 271 kts 26°
2026-04-22 03:26 -37.52103 144.86556 7163 ft 275 kts 26°
2026-04-22 03:26 -37.50367 144.87611 7895 ft 278 kts 26°
2026-04-22 03:26 -37.48621 144.88671 8637 ft 280 kts 26°
2026-04-22 03:27 -37.46855 144.89741 9380 ft 283 kts 25°
2026-04-22 03:27 -37.45072 144.90835 10153 ft 286 kts 29°
2026-04-22 03:27 -37.43460 144.92308 10800 ft 289 kts 43°
2026-04-22 03:27 -37.42165 144.94270 11389 ft 297 kts 54°
2026-04-22 03:28 -37.41357 144.95706 11483 ft 312 kts 54°
2026-04-22 03:28 -37.40057 144.98018 11611 ft 335 kts 54°
2026-04-22 03:28 -37.38678 145.00470 11950 ft 348 kts 54°
2026-04-22 03:28 -37.36790 145.03823 12741 ft 354 kts 54°
2026-04-22 03:29 -37.35845 145.05496 13164 ft 356 kts 54°
2026-04-22 03:29 -37.33928 145.08889 14004 ft 361 kts 53°
2026-04-22 03:29 -37.32465 145.11477 14569 ft 365 kts 54°
2026-04-22 03:29 -37.31470 145.13238 14950 ft 368 kts 53°
2026-04-22 03:30 -37.29494 145.16726 15693 ft 373 kts 53°
2026-04-22 03:30 -37.28473 145.18525 16068 ft 375 kts 54°
2026-04-22 03:30 -37.26969 145.21173 16621 ft 379 kts 54°
2026-04-22 03:30 -37.25410 145.23918 17179 ft 383 kts 53°
2026-04-22 03:31 -37.23853 145.26652 17745 ft 387 kts 53°
2026-04-22 03:31 -37.22284 145.29401 18312 ft 390 kts 53°
2026-04-22 03:31 -37.20694 145.32184 18831 ft 393 kts 53°
2026-04-22 03:31 -37.19099 145.34977 19331 ft 396 kts 53°
2026-04-22 03:32 -37.17489 145.37796 19832 ft 399 kts 53°
2026-04-22 03:32 -37.15890 145.40594 20329 ft 401 kts 53°
2026-04-22 03:32 -37.14259 145.43447 20846 ft 404 kts 53°
2026-04-22 03:32 -37.12617 145.46318 21357 ft 407 kts 53°
2026-04-22 03:33 -37.10964 145.49207 21852 ft 409 kts 53°
2026-04-22 03:33 -37.09298 145.52113 22339 ft 412 kts 54°
2026-04-22 03:33 -37.07620 145.55036 22818 ft 415 kts 53°
2026-04-22 03:33 -37.05931 145.57975 23276 ft 417 kts 53°
2026-04-22 03:34 -37.04229 145.60931 23734 ft 420 kts 53°
2026-04-22 03:34 -37.02514 145.63904 24123 ft 422 kts 53°
2026-04-22 03:34 -37.00787 145.66895 24467 ft 426 kts 53°
2026-04-22 03:34 -36.99048 145.69902 24794 ft 429 kts 53°
2026-04-22 03:35 -36.97290 145.72945 25138 ft 432 kts 53°
2026-04-22 03:35 -36.95528 145.75996 25471 ft 435 kts 53°
2026-04-22 03:35 -36.93751 145.79075 25811 ft 438 kts 53°
2026-04-22 03:35 -36.91965 145.82167 26181 ft 440 kts 53°
2026-04-22 03:36 -36.90170 145.85268 26539 ft 442 kts 53°
2026-04-22 03:36 -36.88360 145.88383 26864 ft 445 kts 53°
2026-04-22 03:36 -36.86534 145.91519 27179 ft 448 kts 53°
2026-04-22 03:36 -36.84698 145.94672 27501 ft 450 kts 53°
2026-04-22 03:37 -36.82852 145.97841 27830 ft 453 kts 53°
2026-04-22 03:37 -36.80991 146.01035 28134 ft 456 kts 53°
2026-04-22 03:37 -36.79121 146.04247 28434 ft 459 kts 53°
2026-04-22 03:37 -36.77246 146.07462 28771 ft 461 kts 53°
2026-04-22 03:38 -36.75355 146.10703 29079 ft 463 kts 53°
2026-04-22 03:38 -36.73453 146.13960 29358 ft 466 kts 53°
2026-04-22 03:38 -36.71538 146.17230 29647 ft 468 kts 52°
2026-04-22 03:38 -36.69606 146.20518 29930 ft 471 kts 52°
2026-04-22 03:39 -36.67668 146.23818 30229 ft 474 kts 52°
2026-04-22 03:39 -36.65721 146.27137 30502 ft 476 kts 52°
2026-04-22 03:39 -36.63763 146.30474 30757 ft 478 kts 52°
2026-04-22 03:39 -36.61801 146.33814 31108 ft 477 kts 53°
2026-04-22 03:40 -36.59842 146.37145 31465 ft 477 kts 53°
2026-04-22 03:40 -36.57883 146.40468 31816 ft 476 kts 53°
2026-04-22 03:40 -36.55921 146.43792 32167 ft 475 kts 52°
2026-04-22 03:40 -36.53963 146.47103 32512 ft 475 kts 52°
2026-04-22 03:41 -36.52011 146.50403 32853 ft 474 kts 52°
2026-04-22 03:41 -36.50085 146.53664 33189 ft 474 kts 52°
2026-04-22 03:41 -36.48133 146.56966 33496 ft 474 kts 52°
2026-04-22 03:41 -36.46179 146.60268 33812 ft 474 kts 52°
2026-04-22 03:42 -36.44223 146.63566 34135 ft 474 kts 52°
2026-04-22 03:42 -36.42267 146.66859 34447 ft 474 kts 52°
2026-04-22 03:42 -36.40310 146.70147 34741 ft 473 kts 52°
2026-04-22 03:42 -36.38354 146.73431 35011 ft 473 kts 52°
2026-04-22 03:43 -36.36399 146.76714 35260 ft 473 kts 52°
2026-04-22 03:43 -36.34443 146.79996 35335 ft 472 kts 52°
2026-04-22 03:43 -36.30551 146.86528 35348 ft 470 kts 52°
2026-04-22 03:44 -36.26657 146.93033 35347 ft 470 kts 52°
2026-04-22 03:44 -36.22754 146.99536 35344 ft 470 kts 52°
2026-04-22 03:45 -36.18848 147.06046 35345 ft 471 kts 52°
2026-04-22 03:45 -36.14933 147.12560 35351 ft 472 kts 52°
2026-04-22 03:46 -36.11007 147.19074 35351 ft 472 kts 52°
2026-04-22 03:46 -36.07103 147.25546 35345 ft 473 kts 52°
2026-04-22 03:47 -36.03163 147.32048 35342 ft 473 kts 52°
2026-04-22 03:47 -35.99212 147.38564 35347 ft 474 kts 53°
2026-04-22 03:48 -35.95255 147.45081 35347 ft 474 kts 52°
2026-04-22 03:48 -35.91286 147.51594 35342 ft 475 kts 52°
2026-04-22 03:49 -35.87317 147.58105 35345 ft 475 kts 52°
2026-04-22 03:49 -35.83348 147.64609 35344 ft 475 kts 52°
2026-04-22 03:50 -35.79371 147.71111 35344 ft 475 kts 53°
2026-04-22 03:50 -35.75379 147.77611 35340 ft 476 kts 52°
2026-04-22 03:51 -35.71379 147.84118 35338 ft 477 kts 52°
2026-04-22 03:51 -35.67378 147.90625 35342 ft 477 kts 53°
2026-04-22 03:52 -35.63372 147.97137 35341 ft 478 kts 53°
2026-04-22 03:52 -35.59345 148.03650 35337 ft 478 kts 52°
2026-04-22 03:53 -35.55311 148.10145 35339 ft 479 kts 52°
2026-04-22 03:53 -35.51276 148.16652 35329 ft 479 kts 52°
2026-04-22 03:54 -35.47233 148.23159 35330 ft 480 kts 53°
2026-04-22 03:54 -35.43181 148.29673 35326 ft 481 kts 53°
2026-04-22 03:55 -35.39123 148.36185 35326 ft 481 kts 53°
2026-04-22 03:55 -35.35055 148.42707 35329 ft 482 kts 53°
2026-04-22 03:56 -35.30973 148.49229 35343 ft 483 kts 53°
2026-04-22 03:56 -35.26884 148.55760 35333 ft 484 kts 53°
2026-04-22 03:57 -35.22775 148.62288 35336 ft 484 kts 53°
2026-04-22 03:57 -35.18684 148.68775 35331 ft 485 kts 53°
2026-04-22 03:58 -35.14567 148.75303 35333 ft 486 kts 53°
2026-04-22 03:58 -35.10444 148.81845 35347 ft 486 kts 53°
2026-04-22 03:59 -35.06309 148.88378 35337 ft 486 kts 53°
2026-04-22 03:59 -35.02164 148.94906 35330 ft 487 kts 53°
2026-04-22 04:00 -34.98013 149.01433 35329 ft 487 kts 53°
2026-04-22 04:00 -34.93861 149.07964 35347 ft 487 kts 53°
2026-04-22 04:01 -34.89706 149.14488 35332 ft 488 kts 53°
2026-04-22 04:01 -34.87619 149.17758 34764 ft 492 kts 53°
2026-04-22 04:01 -34.85482 149.21098 33548 ft 505 kts 53°
2026-04-22 04:02 -34.83328 149.24457 33069 ft 499 kts 53°
2026-04-22 04:02 -34.81197 149.27776 32493 ft 496 kts 53°
2026-04-22 04:02 -34.79078 149.31078 31926 ft 493 kts 53°
2026-04-22 04:02 -34.76972 149.34361 31359 ft 491 kts 53°
2026-04-22 04:03 -34.74884 149.37625 30858 ft 487 kts 55°
2026-04-22 04:03 -34.73095 149.41083 30385 ft 479 kts 64°
2026-04-22 04:03 -34.71553 149.44663 29671 ft 480 kts 64°
2026-04-22 04:03 -34.69989 149.48265 29195 ft 483 kts 64°
2026-04-22 04:04 -34.68416 149.51861 28685 ft 480 kts 64°
2026-04-22 04:04 -34.66849 149.55428 28172 ft 476 kts 64°
2026-04-22 04:04 -34.65297 149.58963 27668 ft 472 kts 64°
2026-04-22 04:04 -34.63761 149.62465 27192 ft 468 kts 65°
2026-04-22 04:05 -34.62239 149.65932 26707 ft 463 kts 65°
2026-04-22 04:05 -34.60730 149.69370 26296 ft 460 kts 65°
2026-04-22 04:05 -34.59235 149.72776 25844 ft 456 kts 65°
2026-04-22 04:05 -34.57744 149.76168 25394 ft 453 kts 65°
2026-04-22 04:06 -34.56272 149.79516 24954 ft 449 kts 65°
2026-04-22 04:06 -34.54808 149.82844 24515 ft 445 kts 65°
2026-04-22 04:06 -34.53356 149.86144 24067 ft 441 kts 65°
2026-04-22 04:06 -34.51935 149.89368 23599 ft 437 kts 65°
2026-04-22 04:07 -34.50506 149.92602 23127 ft 433 kts 65°
2026-04-22 04:07 -34.49093 149.95802 22680 ft 428 kts 65°
2026-04-22 04:07 -34.47694 149.98968 22206 ft 424 kts 65°
2026-04-22 04:07 -34.46309 150.02098 21758 ft 419 kts 65°
2026-04-22 04:08 -34.44936 150.05194 21292 ft 415 kts 65°
2026-04-22 04:08 -34.43570 150.08278 20443 ft 419 kts 65°
2026-04-22 04:08 -34.42203 150.11358 20156 ft 409 kts 65°
2026-04-22 04:08 -34.40854 150.14393 19394 ft 412 kts 65°
2026-04-22 04:09 -34.39492 150.17456 18896 ft 414 kts 65°
2026-04-22 04:09 -34.38128 150.20518 18342 ft 412 kts 65°
2026-04-22 04:09 -34.36774 150.23557 17837 ft 409 kts 65°
2026-04-22 04:09 -34.35430 150.26572 17324 ft 405 kts 65°
2026-04-22 04:10 -34.34097 150.29560 16831 ft 402 kts 65°
2026-04-22 04:10 -34.32773 150.32529 16325 ft 400 kts 65°
2026-04-22 04:10 -34.31455 150.35474 15826 ft 396 kts 65°
2026-04-22 04:10 -34.30157 150.38355 15554 ft 382 kts 64°
2026-04-22 04:11 -34.28931 150.41068 15066 ft 356 kts 64°
2026-04-22 04:11 -34.27770 150.43652 14266 ft 344 kts 64°
2026-04-22 04:11 -34.26674 150.46098 13973 ft 318 kts 64°
2026-04-22 04:11 -34.25658 150.48374 13612 ft 299 kts 65°
2026-04-22 04:12 -34.24682 150.50569 13249 ft 297 kts 65°
2026-04-22 04:12 -34.23705 150.52770 12885 ft 297 kts 65°
2026-04-22 04:12 -34.22729 150.54965 12512 ft 296 kts 65°
2026-04-22 04:12 -34.21757 150.57146 12143 ft 294 kts 65°
2026-04-22 04:13 -34.20790 150.59310 11785 ft 293 kts 64°
2026-04-22 04:13 -34.19822 150.61467 11431 ft 291 kts 64°
2026-04-22 04:13 -34.18858 150.63611 11070 ft 290 kts 64°
2026-04-22 04:13 -34.17897 150.65746 10711 ft 289 kts 64°
2026-04-22 04:14 -34.16934 150.67890 10303 ft 290 kts 64°
2026-04-22 04:14 -34.15977 150.70013 10123 ft 286 kts 64°
2026-04-22 04:14 -34.15029 150.72116 9966 ft 286 kts 64°
2026-04-22 04:14 -34.14087 150.74207 9548 ft 287 kts 64°
2026-04-22 04:15 -34.13134 150.76318 9168 ft 286 kts 64°
2026-04-22 04:15 -34.12176 150.78443 8798 ft 284 kts 65°
2026-04-22 04:15 -34.11247 150.80501 8428 ft 282 kts 64°
2026-04-22 04:15 -34.10308 150.82581 8062 ft 282 kts 65°
2026-04-22 04:16 -34.09364 150.84668 7712 ft 285 kts 63°
2026-04-22 04:16 -34.07754 150.88154 7092 ft 283 kts 65°
2026-04-22 04:16 -34.06493 150.90897 6604 ft 281 kts 65°
2026-04-22 04:17 -34.05548 150.92955 6218 ft 280 kts 63°
2026-04-22 04:17 -34.04923 150.94312 6036 ft 277 kts 63°
2026-04-22 04:17 -34.03696 150.96993 6014 ft 273 kts 63°
2026-04-22 04:17 -34.03088 150.98319 6007 ft 273 kts 64°
2026-04-22 04:18 -34.02130 151.00300 6011 ft 274 kts 54°
2026-04-22 04:18 -34.00667 151.01789 6011 ft 281 kts 28°
2026-04-22 04:18 -33.98770 151.02337 5948 ft 282 kts
2026-04-22 04:18 -33.96825 151.02036 5550 ft 283 kts 349°
2026-04-22 04:19 -33.94881 151.01550 5218 ft 281 kts 347°
2026-04-22 04:19 -33.92996 151.01065 4850 ft 281 kts 348°
2026-04-22 04:19 -33.91065 151.00559 4509 ft 279 kts 348°
2026-04-22 04:19 -33.89169 151.00060 4127 ft 279 kts 347°
2026-04-22 04:20 -33.87276 150.99567 3806 ft 278 kts 348°
2026-04-22 04:20 -33.85387 150.99072 3453 ft 278 kts 348°
2026-04-22 04:20 -33.83514 150.98581 3207 ft 275 kts 348°
2026-04-22 04:20 -33.81646 150.98084 3062 ft 275 kts 348°
2026-04-22 04:21 -33.79781 150.97589 3001 ft 273 kts 351°
2026-04-22 04:21 -33.77922 150.97645 3012 ft 272 kts 17°
2026-04-22 04:21 -33.76300 150.98721 3009 ft 265 kts 49°
2026-04-22 04:21 -33.75302 151.00521 3013 ft 260 kts 70°
2026-04-22 04:22 -33.74620 151.02534 3010 ft 260 kts 73°
2026-04-22 04:22 -33.73995 151.04573 2999 ft 259 kts 78°
2026-04-22 04:22 -33.73940 151.06678 3012 ft 250 kts 109°
2026-04-22 04:22 -33.74712 151.08487 3013 ft 243 kts 130°
2026-04-22 04:23 -33.75780 151.10074 3010 ft 244 kts 133°
2026-04-22 04:23 -33.76886 151.11634 3014 ft 246 kts 133°
2026-04-22 04:23 -33.78068 151.13113 2998 ft 245 kts 146°
2026-04-22 04:23 -33.79639 151.13883 2832 ft 249 kts 168°
2026-04-22 04:24 -33.81360 151.14216 2398 ft 250 kts 170°
2026-04-22 04:24 -33.83023 151.14591 2047 ft 234 kts 168°
2026-04-22 04:24 -33.84557 151.14985 1739 ft 215 kts 168°
2026-04-22 04:24 -33.85932 151.15343 1496 ft 195 kts 168°
2026-04-22 04:25 -33.87227 151.15679 1239 ft 188 kts 167°
2026-04-22 04:25 -33.88497 151.16009 968 ft 181 kts 167°
2026-04-22 04:25 -33.89643 151.16305 734 ft 158 kts 168°
2026-04-22 04:25 -33.90641 151.16564 538 ft 139 kts 167°
2026-04-22 04:26 -33.91631 151.16822 375 ft 143 kts 168°
2026-04-22 04:26 -33.92587 151.17062 144 ft 142 kts 167°
2026-04-22 04:26 -33.93496 151.17286 50 ft 119 kts 159°
2026-04-22 04:26 -33.94196 151.17449 33 ft 86 kts 152°
2026-04-22 04:27 -33.94610 151.17620 30 ft 45 kts 170°
2026-04-22 04:27 -33.94904 151.17669 29 ft 43 kts 170°
2026-04-22 04:27 -33.95140 151.17755 28 ft 29 kts 131°
2026-04-22 04:27 -33.95142 151.17878 30 ft 0 kts 76°
2026-04-22 04:28 -33.95141 151.17883 30 ft 2 kts 73°
2026-04-22 04:29 -33.95120 151.17920 30 ft 10 kts 42°
2026-04-22 04:29 -33.95051 151.17931 30 ft 11 kts 350°
2026-04-22 04:29 -33.94966 151.17909 30 ft 14 kts 348°
2026-04-22 04:29 -33.94852 151.17878 30 ft 19 kts 348°
2026-04-22 04:30 -33.94705 151.17842 30 ft 24 kts 348°
2026-04-22 04:30 -33.94541 151.17798 30 ft 25 kts 346°
2026-04-22 04:30 -33.94375 151.17749 30 ft 24 kts 346°
2026-04-22 04:30 -33.94210 151.17697 29 ft 25 kts 346°
2026-04-22 04:31 -33.94060 151.17653 28 ft 23 kts 348°
2026-04-22 04:31 -33.93929 151.17619 29 ft 16 kts 349°
2026-04-22 04:31 -33.93869 151.17676 29 ft 11 kts 67°
2026-04-22 04:31 -33.93844 151.17761 30 ft 11 kts 72°
2026-04-22 04:32 -33.93821 151.17850 30 ft 12 kts 73°
2026-04-22 04:32 -33.93798 151.17950 30 ft 13 kts 75°
2026-04-22 04:32 -33.93772 151.18042 30 ft 11 kts 51°
2026-04-22 04:32 -33.93705 151.18055 30 ft 9 kts 352°
2026-04-22 04:33 -33.93639 151.18052 30 ft 8 kts
2026-04-22 04:33 -33.93607 151.18034 30 ft 5 kts 295°
2026-04-22 04:33 -33.93599 151.17999 30 ft 2 kts 282°
2026-04-22 04:33 -33.93597 151.17988 30 ft 1 kts 282°
2026-04-22 04:34 -33.93597 151.17986 30 ft 0 kts 282°
2026-04-22 04:35 -33.93597 151.17987 30 ft 0 kts 282°